EW1107 Weather Reports


Display with metric or nautical units.
time (UTC)temp
F
wind
direction
speed
MPH
gust
MPH
rain 1hr
in
rain 24hr
in
rain mn
in
humidity
%
barometer
mb
20260506091534 70 284 12.0 29.0 0.00 0.00 0.00 58 1004.0
20260506091034 70 250 14.0 25.0 0.00 0.00 0.00 59 1004.0
20260506090532 70 294 12.0 31.0 0.00 0.00 0.00 58 1003.9
20260506090033 71 261 13.0 31.0 0.00 0.00 0.00 57 1004.0
20260506085531 70 198 10.0 25.0 0.00 0.00 0.00 59 1004.0
20260506085030 69 215 11.0 24.0 0.00 0.00 0.00 60 1003.9
20260506084534 69 202 14.0 24.0 0.00 0.00 0.00 59 1004.0
20260506084030 69 206 15.0 28.0 0.00 0.00 0.00 59 1004.0
20260506083530 69 229 12.0 31.0 0.00 0.00 0.00 58 1004.0
20260506083029 69 217 13.0 31.0 0.00 0.00 0.00 60 1004.0
20260506082528 69 204 16.0 24.0 0.00 0.00 0.00 59 1004.0
20260506082027 69 300 12.0 29.0 0.00 0.00 0.00 60 1003.9
20260506081528 69 210 12.0 28.0 0.00 0.00 0.00 60 1003.9
20260506081027 69 216 9.0 28.0 0.00 0.00 0.00 61 1003.8
20260506080626 68 221 17.0 28.0 0.00 0.00 0.00 61 1003.8
20260506073521 66 246 10.0 29.0 0.00 0.00 0.00 64 1003.8
20260506073021 66 199 16.0 29.0 0.00 0.00 0.00 63 1003.7
20260506072521 66 210 16.0 31.0 0.00 0.00 0.00 62 1003.7
20260506072020 67 219 8.0 25.0 0.00 0.00 0.00 63 1003.7
20260506071518 66 195 14.0 25.0 0.00 0.00 0.00 63 1003.6
20260506071017 66 242 15.0 23.0 0.00 0.00 0.00 63 1003.5
20260506070515 65 211 8.0 25.0 0.00 0.00 0.00 65 1003.3
20260506062509 63 226 11.0 22.0 0.00 0.00 0.00 66 1003.3
20260506062008 63 190 7.0 21.0 0.00 0.00 0.00 66 1003.4
20260506061508 63 176 8.0 21.0 0.00 0.00 0.00 67 1003.4
20260506061011 63 199 9.0 20.0 0.00 0.00 0.00 66 1003.4
20260506060508 63 183 7.0 21.0 0.00 0.00 0.00 66 1003.3
20260506051100 61 166 7.0 16.0 0.00 0.00 0.00 69 1003.4
20260506050556 61 186 8.0 16.0 0.00 0.00 0.00 69 1003.5
20260506045051 60 205 6.0 14.0 0.00 0.00 0.00 71 1003.6
20260506044550 60 201 3.0 14.0 0.00 0.00 0.00 72 1003.7
20260506044047 59 172 9.0 15.0 0.00 0.00 0.00 74 1003.7
20260506043546 58 157 7.0 15.0 0.00 0.00 0.00 77 1003.6
20260506043045 57 163 4.0 10.0 0.00 0.00 0.00 81 1003.7
20260506042544 57 169 3.0 9.0 0.00 0.00 0.00 85 1003.6
20260506042045 56 195 2.0 10.0 0.00 0.00 0.00 88 1003.7
20260506041542 55 146 0.0 9.0 0.00 0.00 0.00 90 1003.7
20260506041039 54 161 2.0 9.0 0.00 0.00 0.00 91 1003.7
20260506040538 54 152 1.0 5.0 0.00 0.00 0.00 92 1003.7
20260506040037 54 123 0.0 2.0 0.00 0.00 0.00 92 1003.7
20260506035637 53 73 0.0 2.0 0.00 0.00 0.00 92 1003.8
20260506035036 53 73 0.0 0.0 0.00 0.00 0.00 92 1003.8
20260506034539 53 73 0.0 0.0 0.00 0.00 0.00 92 1003.8
20260506034034 53 73 0.0 0.0 0.00 0.00 0.00 92 1003.7
20260506033534 53 73 0.0 0.0 0.00 0.00 0.00 92 1003.8
20260506033037 53 73 0.0 0.0 0.00 0.00 0.00 92 1003.8
20260506032532 53 73 0.0 0.0 0.00 0.00 0.00 92 1003.9
20260506032032 53 73 0.0 0.0 0.00 0.00 0.00 92 1003.9
20260506031535 53 73 0.0 0.0 0.00 0.00 0.00 92 1003.9
20260506031031 53 73 0.0 0.0 0.00 0.00 0.00 92 1003.9
20260506030532 53 73 0.0 0.0 0.00 0.00 0.00 92 1004.0
20260506030053 53 73 0.0 0.0 0.00 0.00 0.00 92 1004.0
20260506025530 53 73 0.0 0.0 0.00 0.00 0.00 92 1004.0
20260506025033 53 73 0.0 0.0 0.00 0.00 0.00 92 1003.9
20260506024532 53 73 0.0 0.0 0.00 0.00 0.00 92 1004.0
20260506024031 53 73 0.0 0.0 0.00 0.00 0.00 92 1004.0
20260506023529 53 73 0.0 4.0 0.00 0.00 0.00 91 1004.0
20260506023028 53 73 0.0 4.0 0.00 0.00 0.00 91 1004.0
20260506022529 53 53 0.0 0.0 0.00 0.00 0.00 91 1004.1
20260506022028 53 53 0.0 0.0 0.00 0.00 0.00 91 1004.1
20260506021527 53 53 0.0 0.0 0.00 0.00 0.00 91 1004.1
20260506021029 54 53 0.0 0.0 0.00 0.00 0.00 91 1004.1
20260506020529 54 53 0.0 0.0 0.00 0.00 0.00 91 1004.1
20260506020026 54 53 0.0 0.0 0.00 0.00 0.00 91 1004.1
20260506015525 54 53 0.0 0.0 0.00 0.00 0.00 91 1004.2
20260506014525 54 53 0.0 0.0 0.00 0.00 0.00 91 1004.2
20260506014023 54 53 0.0 0.0 0.00 0.00 0.00 90 1004.2
20260506013524 54 53 0.0 0.0 0.00 0.00 0.00 90 1004.2
20260506013022 55 53 0.0 0.0 0.00 0.00 0.00 91 1004.1
20260506012522 55 53 0.0 0.0 0.00 0.00 0.00 90 1004.1
20260506012020 55 53 0.0 1.0 0.00 0.00 0.00 90 1004.2
20260506011529 55 53 0.0 4.0 0.00 0.00 0.00 90 1004.2
20260506011022 55 53 1.0 4.0 0.00 0.00 0.00 90 1004.2
20260506010518 55 123 0.0 0.0 0.00 0.00 0.00 90 1004.3
20260506010019 55 123 0.0 0.0 0.00 0.00 0.00 90 1004.3
20260506005517 55 123 0.0 6.0 0.00 0.00 0.00 90 1004.4
20260506005017 56 93 0.0 6.0 0.00 0.00 0.00 90 1004.4
20260506004532 55 84 0.0 6.0 0.00 0.00 0.00 90 1004.4
20260506004017 55 83 0.0 6.0 0.00 0.00 0.00 90 1004.3
20260506003517 55 65 0.0 0.0 0.00 0.00 0.00 89 1004.3
20260506003022 56 65 0.0 2.0 0.00 0.00 0.00 89 1004.4
20260506002516 56 65 0.0 2.0 0.00 0.00 0.00 89 1004.4
20260506002019 56 65 0.0 2.0 0.00 0.00 0.00 89 1004.4
20260506001515 56 65 0.0 2.0 0.00 0.00 0.00 89 1004.4
20260506001014 56 53 0.0 2.0 0.00 0.00 0.00 88 1004.4
20260506000516 56 47 0.0 3.0 0.00 0.00 0.00 88 1004.5
20260506000017 56 47 0.0 3.0 0.00 0.00 0.00 88 1004.5
20260505235511 56 62 0.0 5.0 0.00 0.00 0.00 88 1004.5
20260505235013 56 62 0.0 6.0 0.00 0.00 0.00 88 1004.5
20260505234009 57 67 0.0 3.0 0.00 0.00 0.00 87 1004.6
20260505233512 57 68 0.0 3.0 0.00 0.00 0.00 87 1004.6
20260505233009 57 50 0.0 2.0 0.00 0.00 0.00 87 1004.6
20260505232510 57 34 0.0 5.0 0.00 0.00 0.00 87 1004.7
20260505232007 57 65 0.0 0.0 0.00 0.00 0.00 87 1004.7
20260505231507 57 61 0.0 1.0 0.00 0.00 0.00 86 1004.9
20260505231010 57 54 0.0 2.0 0.00 0.00 0.00 86 1004.9
20260505230505 58 70 0.0 2.0 0.00 0.00 0.00 86 1004.9
20260505230004 58 37 0.0 6.0 0.00 0.00 0.00 86 1004.9
20260505225504 58 37 1.0 6.0 0.00 0.00 0.00 85 1005.0
20260505225003 58 52 0.0 4.0 0.00 0.00 0.00 85 1004.9
20260505224503 58 51 0.0 9.0 0.00 0.00 0.00 85 1004.9
20260505224002 58 355 1.0 13.0 0.00 0.00 0.00 85 1004.8
20260505223502 58 68 3.0 13.0 0.00 0.00 0.00 85 1004.8
20260505223102 58 28 3.0 12.0 0.00 0.00 0.00 85 1004.8
20260505222600 59 53 0.0 9.0 0.00 0.00 0.00 84 1004.7
20260505222059 59 70 1.0 11.0 0.00 0.00 0.00 84 1004.7
20260505221604 59 22 2.0 9.0 0.00 0.00 0.00 84 1004.7
20260505221158 59 20 0.0 9.0 0.00 0.00 0.00 84 1004.7
20260505220557 59 17 0.0 9.0 0.00 0.00 0.00 83 1004.7
20260505220056 59 5 0.0 5.0 0.00 0.00 0.00 83 1004.8
20260505215556 59 40 0.0 12.0 0.00 0.00 0.00 83 1004.9
20260505215055 60 26 2.0 17.0 0.00 0.00 0.00 82 1004.9
20260505214559 60 5 4.0 17.0 0.00 0.00 0.00 82 1004.9
20260505213555 60 42 1.0 13.0 0.00 0.00 0.00 81 1004.9
20260505213057 60 51 2.0 13.0 0.00 0.00 0.00 81 1004.9
20260505212557 60 26 0.0 15.0 0.00 0.00 0.00 81 1004.9
20260505212054 61 45 1.0 15.0 0.00 0.00 0.00 80 1004.9
20260505211554 61 15 3.0 17.0 0.00 0.00 0.00 80 1004.9
20260505211054 61 22 5.0 17.0 0.00 0.00 0.00 80 1004.8
20260505210555 61 24 4.0 12.0 0.00 0.00 0.00 79 1005.0
20260505210053 62 275 3.0 22.0 0.00 0.00 0.00 79 1005.1
20260505205554 62 5 11.0 22.0 0.00 0.00 0.00 79 1004.9
20260505205057 62 13 4.0 13.0 0.00 0.00 0.00 79 1005.1
20260505204553 62 296 7.0 22.0 0.00 0.00 0.00 78 1005.0
20260505204053 63 40 7.0 22.0 0.00 0.00 0.00 77 1004.8
20260505203556 63 331 4.0 13.0 0.00 0.00 0.00 77 1004.9
20260505203056 63 34 8.0 13.0 0.00 0.00 0.00 76 1004.9
20260505202553 64 13 7.0 13.0 0.00 0.00 0.00 76 1004.9
20260505202052 64 355 0.0 14.0 0.00 0.00 0.00 75 1004.9
20260505201553 64 9 3.0 14.0 0.00 0.00 0.00 75 1004.9
20260505201052 64 39 4.0 14.0 0.00 0.00 0.00 75 1004.9
20260505200552 64 28 3.0 23.0 0.00 0.00 0.00 74 1004.9
20260505200052 65 345 5.0 23.0 0.00 0.00 0.00 74 1004.9
20260505195550 65 21 10.0 21.0 0.00 0.00 0.00 73 1004.9
20260505195051 65 43 2.0 17.0 0.00 0.00 0.00 72 1004.9
20260505194557 66 360 5.0 18.0 0.00 0.00 0.00 72 1004.9
20260505194052 66 44 6.0 18.0 0.00 0.00 0.00 71 1004.8
20260505193551 66 38 4.0 11.0 0.00 0.00 0.00 71 1004.8
20260505193105 67 9 4.0 18.0 0.00 0.00 0.00 70 1004.8
20260505192552 67 36 8.0 23.0 0.00 0.00 0.00 70 1004.7
20260505192050 67 9 11.0 23.0 0.00 0.00 0.00 69 1004.8
20260505191555 68 10 2.0 16.0 0.00 0.00 0.00 68 1004.8
20260505191049 68 343 7.0 20.0 0.00 0.00 0.00 68 1004.8
20260505190549 68 22 8.0 20.0 0.00 0.00 0.00 67 1004.7
20260505190050 69 360 8.0 19.0 0.00 0.00 0.00 65 1004.6
20260505185550 69 38 4.0 21.0 0.00 0.00 0.00 64 1004.6
20260505185049 69 5 10.0 21.0 0.00 0.00 0.00 62 1004.5
20260505184555 70 360 7.0 21.0 0.00 0.00 0.00 60 1004.4
20260505184049 70 348 7.0 21.0 0.00 0.00 0.00 56 1004.3
20260505183647 70 9 4.0 16.0 0.00 0.00 0.00 51 1004.3
20260505180046 74 246 0.0 0.0 0.00 0.00 0.00 39 1004.0
20260505175546 74 246 0.0 0.0 0.00 0.00 0.00 38 1004.0
20260505175045 75 246 0.0 0.0 0.00 0.00 0.00 36 1004.0
20260505174545 75 246 0.0 0.0 0.00 0.00 0.00 36 1004.0
20260505174049 76 246 0.0 0.0 0.00 0.00 0.00 35 1004.0
20260505173545 76 246 0.0 0.0 0.00 0.00 0.00 34 1003.9
20260505173046 77 246 0.0 0.0 0.00 0.00 0.00 33 1003.9
20260505172544 77 246 0.0 7.0 0.00 0.00 0.00 32 1004.0
20260505172044 77 261 0.0 12.0 0.00 0.00 0.00 32 1004.0
20260505171548 77 246 2.0 12.0 0.00 0.00 0.00 31 1004.0
20260505171045 78 203 3.0 8.0 0.00 0.00 0.00 31 1004.1
20260505170543 78 250 2.0 17.0 0.00 0.00 0.00 31 1004.0
20260505170043 78 265 7.0 17.0 0.00 0.00 0.00 30 1004.1
20260505165542 78 235 6.0 23.0 0.00 0.00 0.00 30 1004.1
20260505165042 79 247 5.0 23.0 0.00 0.00 0.00 29 1004.1
20260505164544 79 254 8.0 20.0 0.00 0.00 0.00 28 1004.1
20260505164041 80 260 2.0 23.0 0.00 0.00 0.00 28 1004.1
20260505163542 80 247 8.0 24.0 0.00 0.00 0.00 27 1004.1
20260505163043 80 245 7.0 28.0 0.00 0.00 0.00 27 1004.1
20260505162541 80 257 13.0 28.0 0.00 0.00 0.00 26 1004.1
20260505162041 80 211 14.0 23.0 0.00 0.00 0.00 25 1004.1
20260505161544 81 216 9.0 25.0 0.00 0.00 0.00 24 1004.1
20260505161040 81 200 10.0 25.0 0.00 0.00 0.00 22 1004.1
20260505160539 81 217 8.0 29.0 0.00 0.00 0.00 22 1004.1
20260505160140 81 202 14.0 29.0 0.00 0.00 0.00 21 1004.1
20260505153045 81 237 18.0 28.0 0.00 0.00 0.00 21 1004.2
20260505152537 81 198 12.0 22.0 0.00 0.00 0.00 23 1004.2
20260505152037 81 173 9.0 28.0 0.00 0.00 0.00 24 1004.2
20260505151538 81 250 11.0 28.0 0.00 0.00 0.00 24 1004.2
20260505151039 81 171 11.0 26.0 0.00 0.00 0.00 24 1004.2
20260505150535 82 171 11.0 26.0 0.00 0.00 0.00 23 1004.2
20260505140531 82 225 16.0 28.0 0.00 0.00 0.00 25 1004.8
20260505125023 83 213 10.0 23.0 0.00 0.00 0.00 24 1005.2
20260505124522 82 173 5.0 17.0 0.00 0.00 0.00 25 1005.3
20260505124020 81 188 7.0 17.0 0.00 0.00 0.00 26 1005.4
20260505123520 81 169 6.0 24.0 0.00 0.00 0.00 26 1005.6
20260505123020 82 217 6.0 24.0 0.00 0.00 0.00 26 1005.7
20260505122518 82 209 11.0 24.0 0.00 0.00 0.00 25 1005.7
20260505122018 82 210 8.0 21.0 0.00 0.00 0.00 24 1005.8
20260505121517 81 280 7.0 21.0 0.00 0.00 0.00 25 1005.8
20260505121016 80 159 10.0 28.0 0.00 0.00 0.00 26 1006.0
20260505120514 81 215 11.0 28.0 0.00 0.00 0.00 26 1006.0
20260505120032 81 217 8.0 21.0 0.00 0.00 0.00 26 1006.0
20260505115513 81 142 6.0 20.0 0.00 0.00 0.00 26 1006.1
20260505114513 79 151 8.0 31.0 0.00 0.00 0.00 27 1006.1
20260505114012 79 186 16.0 32.0 0.00 0.00 0.00 27 1006.1
20260505113511 79 197 6.0 17.0 0.00 0.00 0.00 30 1006.1
20260505113013 80 147 1.0 17.0 0.00 0.00 0.00 33 1006.1
20260505112511 80 186 7.0 11.0 0.00 0.00 0.00 33 1006.1
20260505112009 80 175 4.0 12.0 0.00 0.00 0.00 34 1006.2
20260505111522 78 221 1.0 17.0 0.00 0.00 0.00 33 1006.3
20260505111008 78 250 11.0 21.0 0.00 0.00 0.00 33 1006.4
20260505110506 79 154 11.0 21.0 0.00 0.00 0.00 33 1006.5
20260505102103 77 213 5.0 11.0 0.00 0.00 0.00 36 1007.1
20260505101600 78 244 2.0 10.0 0.00 0.00 0.00 35 1007.1
20260505101102 79 311 4.0 10.0 0.00 0.00 0.00 35 1007.2
20260505100557 79 305 0.0 8.0 0.00 0.00 0.00 36 1007.3
20260505100058 78 117 1.0 11.0 0.00 0.00 0.00 36 1007.4
20260505095559 78 225 0.0 17.0 0.00 0.00 0.00 37 1007.5
20260505095057 78 270 7.0 17.0 0.00 0.00 0.00 36 1007.5
20260505094053 77 173 0.0 7.0 0.00 0.00 0.00 37 1007.6
20260505093552 76 229 2.0 9.0 0.00 0.00 0.00 37 1007.7
20260505093052 76 228 2.0 14.0 0.00 0.00 0.00 37 1007.8
20260505092551 77 218 1.0 14.0 0.00 0.00 0.00 39 1007.8
20260505092051 76 262 5.0 18.0 0.00 0.00 0.00 38 1007.8
20260505091615 77 221 4.0 10.0 0.00 0.00 0.00 37 1007.8